{"data":{"norad_id":49456,"intl_designator":"2021-104BA","name":"STARLINK-3124","alt_names":[],"object_type":"PAYLOAD","status":"ACTIVE","operator":null,"country":"US","launch_date":"2021-11-13","launch_site_code":"AFETR","launch_vehicle":null,"mission":null,"orbit_class":"UNKNOWN","rcs_meters":null,"size_class":null,"mass_kg":null,"dimensions":null,"purposes":["comms"],"wikipedia_slug":null,"has_3d_model":false,"image_url":null,"decayed_at":null,"tle_current":{"epoch":"2026-09-19T17:59:21.520032Z","epoch_age_seconds":110151,"freshness":"FRESH","line1":"1 49456U 21104BA  26262.74955463  .00000435  00000+0  24565-4 0  9994","line2":"2 49456  53.1609  55.3485 0001606  64.4183 295.6985 15.33545410268240","mean_motion":15.3354541,"eccentricity":0.0001606,"inclination_deg":53.1609,"raan_deg":55.3485,"arg_perigee_deg":64.4183,"mean_anomaly_deg":295.6985,"bstar":2.4565e-5,"rev_number":26824,"period_min":93.900056079852,"perigee_km":464.14539420393,"apogee_km":466.34348832286,"semimajor_km":6843.3814412634,"source":"CELESTRAK","updated_at":"2026-09-20T09:00:39.401883Z"}}}